sat.trackr.live / text

‹ back to catalog

STARLINK-4205

NORAD 53174 · 2022-083AU

PAYLOAD ACTIVE UNKNOWN

§ Identity

Operator
Country
US
Launch date
2022-07-17
Launch site
AFETR
Launch vehicle
Mass (kg)
RCS (m²)

Purposes: comms

External: N2YO · Heavens-Above · Gunter

§ Orbital elements

Epoch: 2026-05-25T03:03:54.097344Z

Period
95.44 min
Inclination
53.2133°
Eccentricity
0.0001362
Mean motion
15.08843382 rev/d
Perigee alt
538.8 km
Apogee alt
540.7 km
Semi-major
6,917.9 km
B*
9.0206e-5
RAAN
190.9111°
Arg perigee
79.1100°
Mean anomaly
281.0045°
Rev number
21,275

§ Raw data

STARLINK-42051 53174U 22083AU  26145.12770946  .00001148  00000+0  90206-4 0  99932 53174  53.2133 190.9111 0001362  79.1100 281.0045 15.08843382212750

JSON: /api/v1/satellites/53174 · /tle

For live sub-satellite position, see the globe view (requires WebGL).

§ Visibility from observer

Set your observer location to see the next 7 days of passes ≥ 10°. The values pass through the URL so the page stays shareable.

No JS? Fill the form by hand. The geolocation button needs JavaScript.